Вернуться в каталог

STARLINK-33834

АктивенСвязьVLEO
NORAD 63586·PAYLOAD·🇺🇸 United States

Запущен Apr 14, 2025 с Cape Canaveral Space Force Station

Loading…

Ближайшие Пролёты (ближайшие 24 часа)

TLE

СвежийSource: CelesTrak SupGP

Эпоха: Sep 15, 2026, 03:57 UTC

1 63586C 25076T   26258.16506944  .00039349  00000+0  14246-2 0  2580
2 63586  43.0037 331.6656 0001774 268.1889 242.9456 15.27572111    13

Отслеживайте STARLINK-33834 в реальном времени с AllMySat

Download on the App Store